RH
92 99 99 95 100 84 66 68 73 70 69 72 70 66 60 42 37 33 36 37 36 36 38 37 36 34 30 29 26 28 28 28 28 28 29 30 30 27 25 25 27 31 34 35
99 98 94 100 99 87 81 78 75 65 70 76 70 70 64 44 36 29 33 35 35 33 34 37 35 32 32 29 30 30 30 30 32 32 31 30 29 27 28 30 32 33 34 35
91 86 98 100 99 94 85 79 66 66 80 83 77 58 52 42 36 31 28 33 34 32 31 35 36 33 31 32 32 32 32 33 33 32 29 27 27 32 36 38 38 39 40 41
98 98 89 99 98 94 95 86 83 83 90 70 76 52 52 44 33 33 29 27 28 32 32 36 35 33 33 35 36 34 34 34 32 26 23 26 34 39 40 43 44 45 44 44
93 97 100 100 96 92 82 83 87 93 94 84 72 62 45 39 37 33 29 28 35 34 36 37 35 34 36 38 36 36 35 31 27 27 31 40 44 44 42 39 38 40 44 51
83 99 100 100 94 99 96 92 92 91 89 68 58 56 41 39 33 31 34 35 38 36 36 36 35 36 40 38 38 36 34 28 25 30 39 47 47 46 46 47 47 47 47 45
94 99 93 100 99 100 98 98 99 95 93 60 55 56 40 38 32 33 35 32 35 36 34 36 36 38 39 39 39 37 32 30 35 43 50 54 55 54 50 42 39 42 41 38
98 100 100 98 98 96 98 83 60 62 58 48 57 49 39 34 32 27 32 36 34 36 38 35 38 40 40 40 41 38 35 35 42 52 57 58 57 53 44 32 34 35 35 36
97 100 100 99 100 94 100 98 74 58 59 49 45 48 38 38 38 33 38 31 36 37 39 36 39 40 41 42 43 40 42 44 53 59 62 62 58 53 40 36 42 49 52 46
93 99 100 100 98 99 98 92 88 71 59 54 42 46 37 40 36 37 36 37 37 38 40 38 41 43 43 43 45 44 47 51 62 66 67 64 62 52 43 50 58 56 52 37
98 90 98 98 98 95 100 99 95 71 60 43 39 36 40 35 29 34 36 35 36 38 42 42 46 46 44 46 48 46 52 62 67 70 73 67 61 54 62 73 72 68 58 35
74 67 96 94 92 94 85 88 89 73 62 56 48 37 38 37 31 31 34 35 37 41 45 48 51 48 49 50 47 50 61 67 70 74 74 71 66 65 82 80 69 64 38 37
74 67 73 99 89 84 97 93 88 68 58 53 47 42 41 36 33 34 34 36 39 44 49 52 51 51 51 50 49 56 65 68 70 75 74 76 81 79 90 79 50 34 38 39
73 68 55 56 59 69 78 82 82 79 69 55 51 44 44 41 38 38 38 38 40 43 50 53 53 53 51 50 53 61 66 68 72 75 73 78 82 89 60 35 34 36 39 38
82 68 68 64 60 60 59 61 61 73 70 60 52 54 47 48 45 42 45 42 41 42 45 52 54 51 50 52 60 63 67 72 75 72 68 77 89 49 39 35 37 41 38 26
86 77 65 61 62 64 62 58 57 58 68 63 57 53 53 52 48 43 48 48 45 46 51 54 50 50 53 58 58 61 66 69 76 76 75 80 62 40 36 40 40 36 24 16
90 82 71 59 61 66 67 65 59 53 54 54 56 44 53 45 43 46 47 48 52 53 52 50 50 56 57 54 50 54 62 77 79 80 83 70 44 36 40 40 35 24 18 19
86 90 70 63 82 67 52 48 48 51 49 51 51 53 53 51 48 50 49 46 47 46 47 53 59 59 51 38 38 51 63 74 78 64 56 48 37 38 41 36 24 20 22 18
90 96 84 71 60 51 44 47 46 47 41 37 43 51 53 55 56 54 49 52 54 54 58 62 57 45 28 20 25 37 56 61 49 43 43 37 37 42 38 25 24 25 20 15
98 100 99 84 58 53 42 42 38 41 42 36 40 49 52 58 61 58 60 58 56 63 63 53 39 21 17 19 23 29 38 41 37 41 41 42 46 39 28 27 28 22 17 11
100 99 92 83 95 46 43 37 36 44 39 33 33 39 52 60 59 56 57 62 66 60 50 32 20 18 20 22 26 33 39 40 46 46 46 49 41 30 29 29 26 19 14 12
83 71 68 80 95 65 46 44 43 38 36 40 41 47 53 57 62 67 70 67 59 46 30 21 20 21 22 25 32 39 41 43 43 44 48 42 32 31 30 27 21 17 15 14
72 72 73 63 61 51 50 50 50 44 44 49 54 64 71 75 73 66 62 54 39 28 23 22 20 19 22 30 38 39 38 41 45 47 40 32 34 33 30 22 19 18 17 14
60 73 66 60 58 47 37 37 40 52 59 63 58 59 65 67 67 57 46 35 27 25 23 19 17 20 26 32 35 39 42 45 44 35 35 38 37 32 26 23 22 20 16 15
51 51 49 47 48 54 58 59 60 58 58 61 68 72 72 63 51 40 32 28 27 23 19 17 18 22 29 34 38 42 43 39 35 42 47 46 37 29 25 25 22 18 18 17
61 61 62 64 65 67 67 66 65 64 67 72 75 74 66 57 41 31 30 27 24 18 15 17 22 26 31 36 41 40 36 41 50 58 58 49 36 30 29 24 19 19 18 17
Wind_Speed
39 49 54 48 36 25 29 24 21 16 18 15 17 22 21 16 17 15 19 18 15 13 12 12 11 12 12 12 9 7 6 5 6 7 8 9 10 13 15 17 20 22 23 24
36 51 51 26 41 28 24 22 21 16 19 18 16 24 22 18 17 18 19 20 16 14 17 17 14 12 9 8 7 6 5 6 7 7 9 11 13 16 18 20 20 21 21 22
47 54 43 30 36 34 23 21 18 14 10 13 17 24 19 19 19 21 21 21 21 17 15 15 13 11 10 10 8 7 7 7 7 9 10 12 15 16 17 17 18 20 21 23
31 32 45 34 39 32 26 19 15 13 8 8 3 7 11 12 13 17 21 20 22 21 18 15 13 12 12 11 9 8 8 8 10 12 14 16 16 16 16 17 18 20 22 25
24 46 38 35 36 34 24 21 18 11 10 11 12 8 10 7 12 16 18 16 20 21 19 16 13 14 13 11 10 8 8 9 12 15 16 15 14 15 16 19 21 24 26 29
23 29 33 33 34 33 17 19 13 9 5 9 16 13 7 6 1 7 16 17 19 20 18 16 16 16 14 11 9 8 9 12 15 17 16 15 15 17 19 21 24 27 29 31
33 21 32 27 35 32 25 22 5 6 5 6 7 9 15 5 7 2 6 15 19 18 17 17 18 16 14 11 9 9 13 17 18 18 16 17 19 21 23 26 27 28 29 32
27 11 34 39 35 27 32 24 6 5 6 5 11 8 3 2 4 12 13 16 20 19 18 19 19 17 14 12 10 12 17 21 21 20 19 21 23 26 29 30 28 29 32 34
21 6 24 34 32 29 24 25 9 3 2 3 6 6 9 9 5 10 12 22 23 20 18 20 19 17 15 13 12 16 20 23 22 22 23 26 28 31 32 31 32 35 37 39
25 8 22 28 27 28 25 27 11 6 5 5 5 5 4 2 6 5 13 19 25 22 21 21 19 16 15 15 15 20 23 24 23 24 26 29 32 35 34 34 36 38 40 42
12 4 16 22 20 27 21 25 13 11 4 3 3 4 11 5 8 3 10 18 25 24 21 20 18 16 16 16 17 22 25 24 25 28 30 33 36 37 37 39 41 43 43 41
19 10 14 21 12 21 21 16 19 12 6 4 1 2 11 7 7 3 7 18 24 23 20 19 18 17 17 17 21 23 25 26 28 30 33 36 38 38 39 42 44 44 41 39
20 9 14 8 10 19 25 23 23 18 16 17 11 4 7 5 4 2 6 15 22 22 21 20 20 20 20 21 24 25 26 28 30 31 35 38 40 40 43 46 44 41 38 39
20 10 19 18 12 19 25 29 28 27 23 16 20 12 14 14 10 5 4 10 18 20 22 23 23 22 22 24 26 26 29 31 31 34 36 38 41 43 44 42 40 39 39 40
16 6 17 15 17 18 25 32 34 33 32 22 24 26 23 21 21 20 15 17 21 23 24 24 22 22 25 26 26 29 31 31 33 36 37 40 42 43 43 41 38 39 40 42
17 9 10 14 16 18 22 26 31 36 32 34 25 28 24 25 23 20 18 21 25 25 24 24 24 26 25 26 28 29 32 33 35 37 39 41 42 43 42 39 40 40 42 44
22 10 10 5 7 14 14 28 29 30 32 35 33 31 26 27 25 24 22 22 24 24 25 26 26 24 25 26 29 31 32 33 36 39 40 41 42 41 39 40 41 43 44 46
30 17 12 2 5 5 9 15 24 29 30 35 37 35 33 28 25 24 23 23 22 25 25 24 24 25 27 30 30 30 31 34 37 39 39 40 40 39 39 40 41 43 46 47
28 24 12 5 13 9 10 16 19 26 29 29 26 32 33 26 23 25 26 26 24 23 23 23 24 26 28 27 27 29 31 34 37 36 38 39 38 38 39 41 43 46 48 48
20 19 14 11 4 5 6 12 10 14 19 17 23 29 25 23 24 27 25 24 22 21 21 22 25 25 23 24 26 28 30 34 34 36 37 37 37 38 40 43 46 47 48 49
25 19 20 16 8 9 15 8 7 9 7 9 15 19 20 21 23 19 20 20 19 20 22 24 22 22 23 24 25 27 30 32 33 35 35 35 37 39 42 45 45 48 49 49
25 17 16 18 10 13 15 13 12 11 10 8 9 13 16 17 18 17 17 18 20 23 22 20 21 22 22 24 25 27 30 31 33 33 33 34 37 40 43 45 47 48 49 51
21 23 18 17 13 15 11 15 17 18 14 8 8 11 14 15 15 15 17 19 20 18 18 20 21 22 23 24 26 28 29 30 30 31 32 35 38 41 44 46 47 48 49 50
21 21 23 21 22 15 14 13 15 13 13 10 11 11 12 13 14 17 17 16 16 17 19 20 22 23 24 25 27 28 29 29 29 30 34 37 40 42 43 45 47 48 50 50
18 21 23 22 17 14 14 14 13 13 11 11 11 12 14 15 16 14 14 15 16 18 20 22 23 24 25 26 27 27 26 27 29 32 36 39 42 43 44 45 47 48 48 49
14 14 16 13 12 11 11 12 14 15 15 15 15 15 16 15 14 14 14 16 18 20 22 23 24 25 26 26 25 25 26 28 31 34 38 40 42 43 45 47 48 49 48 47
Wind_Direction
204 202 213 203 195 198 206 210 215 224 228 237 245 253 251 239 250 244 244 247 248 242 237 235 245 260 263 257 244 237 246 255 252 247 249 255 261 269 275 277 277 280 283 286
194 206 200 210 197 193 200 202 208 222 232 248 258 260 259 251 245 235 238 241 244 241 238 238 242 254 243 223 216 218 226 238 244 254 263 271 279 282 280 278 279 281 283 285
197 202 195 197 196 191 199 197 196 206 228 251 275 276 258 251 242 236 233 235 238 241 237 230 232 226 214 203 205 218 241 253 261 269 279 285 284 284 282 283 286 291 293 295
205 197 194 208 190 189 195 187 195 210 234 238 240 281 250 220 231 242 233 232 235 230 227 219 217 211 197 199 212 231 247 266 281 291 295 296 296 296 298 298 295 294 295 297
188 197 195 205 195 190 205 209 215 230 260 272 252 258 251 207 251 263 237 230 216 209 208 210 209 193 195 205 223 242 269 289 302 307 307 305 303 302 301 303 305 306 305 304
189 195 191 196 195 191 198 194 199 219 243 251 239 225 272 207 204 269 212 201 199 198 206 204 194 192 201 216 233 257 289 308 312 314 313 311 312 312 312 312 309 305 301 301
188 212 198 181 197 190 179 169 146 194 207 238 208 206 235 245 240 130 176 192 192 199 201 195 190 197 207 219 243 280 307 315 317 316 313 313 314 313 313 311 308 306 306 307
195 172 184 186 194 187 176 184 184 180 193 179 203 233 230 162 219 229 230 199 203 201 197 192 196 204 214 226 259 294 312 315 314 311 309 313 316 316 316 315 312 313 316 318
191 149 155 186 178 187 182 190 190 127 106 229 197 252 263 263 278 228 221 207 200 201 199 198 203 211 220 235 270 295 306 311 306 305 308 312 314 316 316 315 316 317 319 321
198 134 168 168 187 188 213 191 190 193 204 224 204 238 201 145 13 261 225 215 200 196 199 201 209 217 228 246 276 297 302 304 300 301 305 309 313 315 315 316 317 321 323 325
181 180 150 171 193 187 166 190 188 198 224 241 180 153 161 23 354 317 225 210 200 195 199 206 215 226 238 254 279 296 297 297 295 298 302 307 311 314 314 315 318 320 321 322
171 195 160 173 192 207 199 195 193 196 203 228 317 165 186 352 349 263 231 202 198 195 203 211 223 235 249 263 287 292 292 292 293 296 299 305 310 311 311 313 316 317 319 320
170 182 146 175 202 196 207 201 206 214 217 213 221 209 195 52 11 327 238 204 198 199 209 221 234 246 257 273 289 287 285 288 292 293 299 303 305 309 308 311 314 317 318 321
185 198 207 203 214 199 203 210 215 212 222 218 224 225 240 257 273 300 259 211 207 212 221 232 243 256 269 281 285 281 283 287 290 294 299 301 303 305 311 314 315 318 320 318
194 223 207 210 216 212 224 222 222 216 219 226 242 246 257 256 266 265 266 247 243 230 235 243 254 266 277 279 279 281 283 286 289 294 298 300 302 309 312 314 318 318 317 317
183 214 216 230 228 227 224 233 233 229 225 235 242 256 258 262 262 258 263 265 245 236 242 250 261 270 274 277 279 280 282 285 289 293 297 301 305 309 311 316 316 316 316 316
201 209 221 219 221 222 236 226 231 233 231 236 235 251 259 265 261 262 266 250 237 243 252 260 265 267 274 277 279 279 281 284 287 292 295 300 304 309 314 314 315 315 315 314
198 209 213 146 173 220 238 240 232 239 244 243 249 252 257 264 261 255 246 233 241 251 254 257 264 272 277 280 279 280 281 283 287 292 297 301 307 311 312 313 313 313 314 316
209 206 200 176 215 281 264 239 228 225 240 238 240 245 252 255 245 240 234 245 248 247 253 261 271 280 283 281 280 279 279 283 287 297 299 305 308 310 311 312 313 315 317 319
198 212 190 196 235 236 255 243 237 231 249 244 240 243 244 237 229 234 237 241 244 251 262 273 282 282 283 282 280 280 282 285 296 299 305 307 308 310 312 313 315 318 320 321
201 213 224 227 232 276 252 246 195 188 254 243 237 229 229 224 224 236 232 239 250 263 274 282 283 285 283 282 283 283 287 294 301 303 304 306 309 312 312 315 318 321 322 321
197 189 206 216 221 249 241 224 206 232 254 264 236 219 210 211 217 226 239 253 264 275 280 283 287 288 288 289 289 291 295 301 300 300 303 308 310 311 316 320 321 321 322 322
198 207 207 214 222 239 254 239 236 246 260 257 220 209 209 217 228 238 254 267 274 280 287 290 292 293 294 293 294 298 301 300 300 303 307 309 313 317 319 320 321 323 322 321
202 214 222 225 233 233 235 234 235 239 245 236 211 207 217 234 253 266 272 275 283 290 294 297 298 296 297 299 300 301 300 299 302 306 310 315 318 318 320 322 322 322 322 322
212 217 220 228 238 232 223 218 223 233 231 223 220 231 249 263 276 273 278 286 295 301 302 301 301 302 301 300 300 298 297 301 308 313 318 318 318 319 321 321 322 323 323 324
226 230 224 234 236 244 251 245 238 232 231 236 247 253 268 274 274 281 292 302 306 307 306 304 302 301 300 298 297 299 303 310 316 319 318 319 319 320 320 322 323 323 323 323